Location: Newark
(13.8117°N, 3.6025°W)
Time: 09:31:31
(UTC+00:00)

Vanguard 2 - Pass Details

Date: 28 August 2019
Orbit: 554 x 2937 km, 32.9° (Epoch: 23 September)

Event Time Altitude Azimuth Distance (km) Brightness Sun altitude
Rises 17:30:46 0° 300° (WNW) 4,569 12.8 13.1°
Reaches altitude 10° 17:33:19 10° 300° (WNW) 3,850 12.6 12.5°
Maximum altitude 17:44:14 84° 213° (SSW) 2,274 10.1 9.8°
Drops below altitude 10° 18:01:12 10° 127° (SE) 5,679 11.4 5.8°
Sets 18:05:53 0° 126° (SE) 6,776 11.8 4.6°
